CW1532 Weather Reports


time (UTC)temp
C
wind
direction
speed
KPH
gust
KPH
rain 1hr
cm
rain 24hr
cm
rain mn
cm
humidity
%
barometer
mb
20260503034529 9 355 3.2 12.9 0.00 0.03 0.03 80 1009.8
20260503033044 8 331 1.6 4.8 0.00 0.03 0.03 91 1009.9
20260503031559 8 329 0.0 1.6 0.00 0.03 0.03 91 1010.2
20260503030036 8 348 0.0 4.8 0.00 0.03 0.03 91 1010.0
20260503024555 8 250 0.0 1.6 0.00 0.03 0.03 91 1010.1
20260503023012 8 250 0.0 1.6 0.00 0.03 0.03 91 1009.9
20260503021550 8 250 0.0 0.0 0.00 0.03 0.03 91 1010.2
20260503020025 8 250 0.0 1.6 0.00 0.03 0.03 90 1010.2
20260503014501 8 189 0.0 0.0 0.00 0.03 0.03 90 1010.3
20260503013039 8 189 0.0 1.6 0.00 0.03 0.03 90 1010.2
20260503011604 9 188 0.0 0.0 0.00 0.03 0.03 89 1010.2
20260503010039 9 189 0.0 0.0 0.00 0.03 0.03 89 1010.2
20260503004511 9 189 0.0 0.0 0.00 0.03 0.03 88 1010.0
20260503003048 9 188 0.0 0.0 0.00 0.03 0.03 88 1009.8
20260503001507 10 189 0.0 0.0 0.00 0.03 0.03 88 1009.6
20260503000050 10 189 0.0 1.6 0.00 0.03 0.03 87 1009.6
20260502234553 10 206 0.0 4.8 0.00 0.03 0.03 87 1009.5
20260502233021 10 138 0.0 6.4 0.00 0.03 0.03 86 1009.7
20260502231554 10 180 1.6 4.8 0.00 0.03 0.03 85 1009.7
20260502230033 11 163 0.0 3.2 0.00 0.03 0.03 85 1009.5
20260502224549 11 75 0.0 4.8 0.00 0.03 0.03 84 1009.7
20260502223023 11 164 1.6 3.2 0.00 0.03 0.03 84 1009.6
20260502221600 11 168 1.6 8.0 0.00 0.03 0.03 83 1009.7
20260502220035 11 165 1.6 8.0 0.00 0.03 0.03 81 1009.5
20260502214603 11 200 0.0 6.4 0.00 0.03 0.03 81 1009.7
20260502213022 11 269 3.2 9.7 0.00 0.03 0.03 82 1009.7
20260502211540 12 232 3.2 6.4 0.00 0.03 0.03 81 1009.5
20260502210133 12 163 3.2 6.4 0.00 0.03 0.03 81 1009.4
20260502204535 12 220 1.6 9.7 0.00 0.03 0.03 81 1009.4
20260502203055 12 226 3.2 11.3 0.00 0.03 0.03 82 1009.7
20260502201610 11 153 4.8 12.9 0.00 0.03 0.03 83 1010.0
20260502200100 11 157 3.2 9.7 0.00 0.03 0.03 85 1009.9
20260502194531 11 139 3.2 12.9 0.00 0.03 0.03 85 1010.1
20260502193052 11 151 1.6 12.9 0.00 0.03 0.03 85 1010.3
20260502191524 11 123 1.6 8.0 0.00 0.03 0.03 86 1010.5
20260502190045 11 165 3.2 9.7 0.00 0.03 0.03 86 1010.6
20260502184512 11 162 3.2 11.3 0.00 0.03 0.03 85 1010.8
20260502183040 11 169 4.8 12.9 0.00 0.03 0.03 86 1010.7
20260502181507 11 150 3.2 6.4 0.00 0.03 0.03 86 1010.9
20260502163037 10 204 3.2 8.0 0.00 0.03 0.03 86 1011.3
20260502161554 10 216 4.8 9.7 0.00 0.03 0.03 86 1011.2
20260502151526 10 192 0.0 9.7 0.03 0.03 0.03 87 1011.8
20260502123043 10 256 0.0 4.8 0.00 0.00 0.00 83 1011.8
20260502121554 10 240 3.2 9.7 0.00 0.00 0.00 83 1012.4
20260502114544 10 278 3.2 6.4 0.00 0.00 0.00 83 1011.9
20260502113050 10 270 1.6 6.4 0.00 0.00 0.00 84 1011.7
20260502111503 9 297 0.0 3.2 0.00 0.00 0.00 85 1011.7
20260502110025 9 210 0.0 1.6 0.00 0.00 0.00 86 1011.4
20260502104546 8 210 0.0 3.2 0.00 0.00 0.00 86 1011.6
20260502103108 8 202 0.0 1.6 0.00 0.00 0.00 85 1011.5
20260502101522 8 202 0.0 0.0 0.00 0.00 0.00 84 1011.4
20260502100116 8 178 0.0 0.0 0.00 0.00 0.00 84 1011.3
20260502091518 9 235 0.0 4.8 0.00 0.00 0.00 82 1011.4
20260502071506 8 267 0.0 1.6 0.00 0.00 0.00 81 1011.3
20260502070038 8 202 0.0 4.8 0.00 0.00 0.00 80 1011.4
20260502064552 8 154 1.6 4.8 0.00 0.00 0.00 79 1011.5
20260502063025 8 194 0.0 3.2 0.00 0.00 0.00 78 1011.4
20260502061541 9 207 0.0 1.6 0.00 0.00 0.00 77 1011.5
20260502060004 9 197 0.0 3.2 0.00 0.00 0.00 76 1011.7
20260502054538 9 170 1.6 6.4 0.00 0.00 0.00 76 1011.5
20260502053111 10 259 0.0 9.7 0.00 0.00 0.00 75 1011.8
20260502051530 10 232 3.2 9.7 0.00 0.00 0.00 74 1012.0
20260502050048 10 265 0.0 6.4 0.00 0.00 0.00 74 1012.3
20260502044505 10 235 1.6 6.4 0.00 0.00 0.00 74 1012.3
20260502043037 10 233 0.0 6.4 0.00 0.00 0.00 74 1012.2
20260502041600 10 226 1.6 8.0 0.00 0.00 0.00 74 1012.1
20260502040038 10 264 3.2 9.7 0.00 0.00 0.00 73 1012.1